TimeEST,TemperatureF,Dew PointF,Humidity,Sea Level PressureIn,VisibilityMPH,Wind Direction,Wind SpeedMPH,Gust SpeedMPH,PrecipitationIn,Events,Conditions,WindDirDegrees,DateUTC
12:53 AM,36.0,25.0,64,29.64,10.0,NW,3.5,-,N/A,,Overcast,320,2013-03-03 05:53:00
1:53 AM,36.0,24.1,62,29.63,10.0,Calm,Calm,-,N/A,,Overcast,0,2013-03-03 06:53:00
2:53 AM,35.1,25.0,67,29.62,10.0,Calm,Calm,-,N/A,,Overcast,0,2013-03-03 07:53:00
3:53 AM,35.1,25.0,67,29.61,10.0,NW,3.5,-,N/A,,Overcast,310,2013-03-03 08:53:00
4:53 AM,34.0,26.1,73,29.62,10.0,WNW,3.5,-,N/A,,Overcast,300,2013-03-03 09:53:00
5:53 AM,34.0,25.0,70,29.62,10.0,WNW,4.6,-,N/A,,Overcast,300,2013-03-03 10:53:00
6:53 AM,34.0,24.1,67,29.63,10.0,WNW,4.6,-,N/A,,Overcast,300,2013-03-03 11:53:00
7:53 AM,34.0,24.1,67,29.63,10.0,WNW,5.8,-,N/A,,Overcast,290,2013-03-03 12:53:00
8:53 AM,36.0,24.1,62,29.63,10.0,WNW,8.1,-,N/A,,Overcast,300,2013-03-03 13:53:00
9:53 AM,37.0,25.0,62,29.62,10.0,Variable,3.5,-,N/A,,Overcast,0,2013-03-03 14:53:00
10:53 AM,39.0,25.0,57,29.60,10.0,NW,4.6,-,N/A,,Mostly Cloudy,310,2013-03-03 15:53:00
11:53 AM,39.9,25.0,55,29.59,10.0,Variable,3.5,-,N/A,,Mostly Cloudy,0,2013-03-03 16:53:00
12:53 PM,41.0,25.0,53,29.57,10.0,West,6.9,-,N/A,,Mostly Cloudy,260,2013-03-03 17:53:00
1:53 PM,41.0,25.0,53,29.56,10.0,WSW,8.1,-,N/A,,Mostly Cloudy,250,2013-03-03 18:53:00
2:53 PM,41.0,25.0,53,29.56,10.0,SSW,6.9,-,N/A,,Overcast,210,2013-03-03 19:53:00
3:53 PM,41.0,24.1,51,29.55,10.0,WSW,5.8,-,N/A,,Overcast,240,2013-03-03 20:53:00
4:53 PM,39.0,27.0,62,29.56,10.0,SW,5.8,-,N/A,,Overcast,220,2013-03-03 21:53:00
5:53 PM,37.9,27.0,65,29.57,10.0,West,3.5,-,N/A,,Overcast,270,2013-03-03 22:53:00
6:53 PM,39.0,27.0,62,29.58,10.0,WNW,8.1,-,N/A,,Overcast,300,2013-03-03 23:53:00
7:53 PM,37.0,28.0,70,29.60,10.0,NW,6.9,-,N/A,,Overcast,310,2013-03-04 00:53:00
8:53 PM,35.1,28.0,76,29.60,10.0,NW,5.8,-,N/A,,Overcast,310,2013-03-04 01:53:00
9:48 PM,33.8,28.4,81,29.60,8.0,WNW,6.9,-,0.00,Snow,Light Snow,300,2013-03-04 02:48:00
9:53 PM,34.0,28.9,82,29.60,9.0,WNW,5.8,-,0.00,,Overcast,300,2013-03-04 02:53:00
10:00 PM,33.8,28.4,81,29.60,9.0,WNW,5.8,-,N/A,,Overcast,300,2013-03-04 03:00:00
10:22 PM,33.8,28.4,81,29.60,7.0,WNW,5.8,-,N/A,,Mostly Cloudy,290,2013-03-04 03:22:00
10:29 PM,33.8,28.4,81,29.60,9.0,WNW,8.1,-,N/A,,Mostly Cloudy,300,2013-03-04 03:29:00
10:53 PM,32.0,28.0,85,29.60,10.0,WNW,6.9,-,N/A,,Partly Cloudy,290,2013-03-04 03:53:00
11:51 PM,32.0,28.4,87,29.60,5.0,WNW,8.1,-,0.00,Snow,Light Snow,300,2013-03-04 04:51:00
11:53 PM,32.0,28.0,85,29.60,5.0,WNW,9.2,-,0.00,Snow,Light Snow,290,2013-03-04 04:53:00